Vorticity
3 3 3 3 3 3 3 2 2 2 2 2 2 2 2 3 3 4 5 6 7 8 8 7 7 9 10 9 6 6 7 7 11 14 8 6 0 -6 -0 1 0 1 1 9 16 18 15 10 6 3 3 3 1 2 4 3 1 3 2 1 7 9 7 8 6 3 3 7 8 6 7 5 3 6 7 6 7 9 9 6 6 7 6 5 5 5 6 9
6 6 6 6 6 6 6 5 5 4 4 3 3 3 2 2 2 2 3 3 5 6 7 8 8 8 9 10 9 7 7 6 8 13 11 9 4 -2 1 5 3 0 0 1 5 13 14 11 7 3 3 3 3 2 3 5 4 4 3 1 8 9 3 3 2 -1 2 9 6 3 4 2 4 7 6 6 8 11 9 7 8 9 8 5 6 6 5 7
8 8 9 8 8 8 8 8 8 7 7 6 6 5 4 4 3 2 2 2 3 3 4 6 8 8 8 9 10 9 7 6 7 9 11 12 9 2 -2 3 5 3 3 4 4 7 10 12 9 4 2 2 3 3 2 3 3 4 4 2 6 8 4 2 3 2 6 10 4 1 3 2 5 6 4 7 9 7 7 8 8 9 10 8 7 8 4 4
9 9 9 9 9 9 9 9 9 9 9 8 8 8 7 6 5 5 4 3 2 2 2 3 6 7 8 9 8 10 9 7 7 7 9 11 12 10 4 4 5 2 3 6 6 4 5 10 12 9 5 3 2 2 2 1 1 3 3 3 4 6 7 5 3 5 6 7 4 2 4 5 4 2 3 8 9 8 8 7 7 8 11 11 11 10 7 4
10 10 10 10 10 10 10 10 9 9 9 9 9 9 9 8 8 7 6 5 4 3 3 2 2 4 6 9 8 9 9 9 9 7 7 8 9 11 10 7 5 2 2 4 6 6 7 7 10 14 14 10 6 5 4 1 1 0 1 4 5 4 7 6 0 2 6 6 6 5 6 6 3 2 5 7 7 7 6 5 6 8 10 11 11 10 10 7
12 12 12 12 12 12 12 12 11 11 11 10 9 9 9 9 9 9 8 8 7 6 5 3 2 2 3 5 8 9 8 9 11 9 6 7 7 9 10 11 9 4 1 2 3 5 12 12 7 9 13 14 13 11 3 1 2 -1 1 5 6 4 5 9 3 -1 7 8 6 8 8 4 3 6 8 7 4 4 5 4 4 7 9 10 11 9 11 12
11 11 11 12 12 12 12 12 12 12 12 12 11 11 11 10 10 9 9 9 9 8 7 6 4 3 2 2 4 7 8 8 9 9 9 7 6 8 8 9 12 11 3 1 0 -2 5 13 7 3 6 9 14 16 8 5 5 1 2 5 8 6 1 8 9 3 8 9 4 7 5 1 7 9 6 5 4 4 5 4 5 9 12 11 10 10 12 15
8 8 8 8 9 9 10 10 10 10 11 12 12 12 12 12 12 11 10 10 9 9 8 8 7 6 4 2 2 3 6 8 7 8 10 9 7 7 8 8 10 14 10 3 1 -1 -0 6 6 4 3 1 4 13 15 11 9 6 5 5 7 7 2 5 7 5 6 6 5 5 0 1 11 9 3 7 7 6 5 6 9 10 11 9 9 10 11 12
5 5 5 4 4 5 5 5 6 7 7 9 9 10 11 11 12 12 12 11 11 10 9 9 9 9 7 5 4 2 2 5 7 7 9 10 9 7 7 8 8 11 14 9 4 2 0 2 3 3 2 -0 -0 8 15 13 10 8 6 7 6 5 5 3 4 7 5 2 5 3 -3 2 11 7 3 8 6 5 7 9 9 6 7 9 8 9 10 10
4 4 4 4 3 3 4 4 4 4 4 5 5 6 7 8 10 11 12 12 12 12 12 11 9 9 9 8 6 4 2 3 5 6 9 10 10 10 7 7 8 8 12 13 8 3 0 0 2 3 3 2 2 5 9 9 9 7 7 8 6 4 4 3 3 9 8 2 3 3 -0 1 7 9 6 4 2 4 8 8 4 3 6 9 9 8 9 9
4 5 5 5 5 5 5 5 4 4 4 5 4 4 5 5 6 7 9 10 11 11 12 13 12 10 9 9 8 6 5 4 3 4 7 9 8 10 10 7 7 7 9 12 12 7 3 3 3 3 3 3 2 4 4 5 7 7 7 8 6 3 3 3 4 8 8 3 2 4 4 -1 2 13 9 4 6 6 7 4 2 4 5 6 7 8 9 10
5 5 5 6 6 6 6 6 5 4 4 4 3 4 4 4 5 5 5 7 8 9 10 11 13 13 12 11 9 8 8 5 4 3 4 6 7 8 10 9 7 7 7 9 11 10 6 4 3 2 3 3 2 3 2 2 5 6 5 5 5 5 5 5 4 6 6 3 3 2 3 0 4 14 9 7 8 5 6 3 3 6 5 5 5 7 9 10
6 6 7 7 7 7 7 7 8 7 7 7 5 5 5 4 4 5 5 5 5 6 8 10 11 12 13 13 12 9 9 8 5 5 4 3 6 7 9 10 8 8 8 8 10 11 9 6 4 3 2 3 2 3 3 3 3 4 5 3 2 5 7 6 3 5 4 3 5 4 8 8 9 14 8 8 5 -0 7 4 4 8 4 5 6 7 7 7
6 6 5 5 5 5 5 5 6 6 6 7 7 8 7 7 6 5 5 5 5 4 5 6 8 10 11 12 14 10 9 11 8 7 6 4 5 6 7 9 9 9 8 7 8 10 11 9 6 3 2 3 2 3 4 3 1 1 5 6 3 4 6 3 1 4 4 3 4 8 19 16 8 10 6 7 4 -1 7 4 6 10 3 5 6 6 7 6
5 4 3 3 3 4 4 4 4 5 5 6 7 7 7 8 8 8 7 5 5 5 5 4 5 8 9 10 12 11 10 12 11 9 8 6 5 4 5 8 9 10 9 7 7 7 10 11 9 6 4 2 2 3 4 4 2 -2 2 9 7 5 4 0 -0 3 2 3 3 3 12 10 3 8 6 4 5 3 4 3 8 9 4 6 6 5 7 6
5 4 3 1 1 2 1 2 2 2 4 6 7 8 9 8 8 8 9 9 7 5 5 4 4 6 7 9 10 10 10 11 12 11 10 8 6 4 3 5 7 9 10 8 7 6 7 9 11 10 7 4 1 2 3 5 4 -4 -3 6 8 6 5 2 2 5 2 3 5 0 0 3 2 9 9 4 7 9 3 -0 7 10 6 6 6 5 6 5
6 5 5 3 2 3 1 -0 -1 -1 1 5 6 9 11 12 12 10 8 8 9 9 6 4 4 5 6 7 8 9 9 10 11 11 11 10 9 7 5 3 4 7 9 10 9 8 8 8 10 11 10 8 3 1 1 3 6 -0 -4 2 5 7 7 5 5 7 6 4 7 4 -2 1 4 9 11 5 4 7 4 -1 3 8 7 5 8 7 4 4
4 6 6 5 4 6 4 1 0 -0 1 5 8 10 12 14 15 16 13 9 9 9 8 6 4 4 6 6 7 8 8 8 9 10 11 11 10 10 7 4 3 4 6 8 10 10 9 8 8 9 10 10 7 2 -0 2 8 4 -0 1 2 4 5 6 6 6 8 6 7 8 2 2 3 6 10 6 1 3 2 -1 -1 6 6 3 7 7 4 5
5 6 6 4 5 6 5 4 3 3 4 7 11 13 14 14 15 17 17 13 12 11 10 10 7 5 6 7 7 7 7 8 8 8 10 11 11 10 9 7 4 3 3 5 8 9 10 9 7 7 9 13 13 7 2 3 7 5 3 4 3 2 1 2 5 4 6 7 8 11 7 4 3 4 6 7 6 5 4 1 -2 4 7 3 6 8 6 8
9 10 8 7 6 7 8 8 8 7 10 14 18 20 20 20 21 22 22 17 14 14 12 12 11 10 7 6 8 8 7 8 8 8 8 9 11 10 10 9 6 3 2 2 5 7 10 10 8 8 10 13 16 15 9 5 6 5 4 5 5 5 4 2 4 5 6 8 10 12 9 6 5 5 6 6 5 5 8 6 -1 3 8 5 5 6 7 9
12 13 13 11 10 11 12 14 15 15 17 18 19 21 22 22 21 22 25 24 19 15 15 13 11 11 11 8 8 8 8 8 7 8 8 8 9 10 10 9 7 6 4 3 3 5 9 11 10 9 8 9 11 15 15 11 7 6 4 5 5 5 7 5 3 5 8 9 11 12 10 8 6 6 8 8 4 3 6 5 1 3 6 6 5 5 7 9
12 13 13 12 10 11 16 19 20 21 22 20 19 20 22 22 22 21 23 26 26 21 19 18 14 12 13 12 10 9 9 9 8 8 10 10 9 10 10 10 9 8 7 4 3 4 6 8 12 11 7 7 8 10 14 15 12 8 5 6 6 5 8 7 1 2 7 8 9 12 11 9 8 7 8 9 7 5 4 4 5 5 5 6 5 5 6 8
10 12 12 12 14 20 25 24 22 23 22 20 21 22 20 19 22 25 24 25 29 28 23 22 19 16 15 14 12 11 10 10 9 9 10 11 8 7 9 10 11 8 6 5 4 4 2 3 13 14 7 7 7 7 11 14 15 12 8 6 6 6 9 9 3 1 5 7 7 11 13 7 6 8 7 7 8 8 5 2 1 3 5 4 1 -1 -3 -2
11 12 15 18 23 27 24 18 18 20 18 16 17 16 13 11 12 15 17 18 23 29 29 27 24 21 19 17 14 12 12 11 11 10 10 11 10 9 9 10 11 9 8 8 6 5 -0 1 12 11 8 10 7 6 8 11 13 13 11 9 5 5 8 9 6 3 3 5 4 9 14 8 4 8 7 5 9 11 6 -1 -1 4 5 2 0 0 -1 -3
11 14 21 23 21 20 16 12 13 12 10 10 10 8 7 9 9 8 9 10 13 17 22 26 27 25 23 21 20 17 16 13 12 11 11 13 12 10 9 8 9 11 11 9 7 7 3 3 8 5 6 11 9 7 7 8 11 12 12 10 6 5 7 8 8 6 3 4 3 5 14 12 5 6 6 4 8 13 8 1 3 7 4 3 5 4 3 3
14 20 24 20 13 11 10 7 5 4 6 8 9 10 10 10 10 9 9 8 10 10 13 19 25 29 27 21 21 22 20 18 16 12 11 14 14 12 10 8 8 9 12 12 8 7 6 5 5 3 6 9 7 7 6 7 9 10 11 10 7 7 7 6 7 7 4 5 4 3 10 13 7 6 7 3 5 10 8 2 2 4 5 6 7 6 5 5
20 24 20 12 7 6 4 1 3 7 10 11 10 10 10 11 11 12 11 9 11 13 14 15 19 29 31 26 26 26 21 21 20 15 13 15 16 17 14 10 8 7 8 11 9 8 9 7 4 2 5 8 8 6 6 9 9 8 10 11 10 10 8 6 6 6 5 5 6 4 6 11 10 7 6 4 4 6 7 3 -0 1 6 8 6 6 7 6
24 22 13 6 4 1 -0 3 9 13 12 10 10 9 10 11 11 12 14 13 12 12 11 9 8 17 23 22 27 28 25 25 21 17 17 16 15 17 17 14 10 8 7 7 8 11 13 11 7 2 2 7 10 8 8 10 9 8 9 9 11 13 9 6 6 6 5 4 5 6 4 9 15 10 6 6 5 4 5 2 -1 1 6 8 6 6 6 7
25 18 7 4 1 -2 1 9 14 12 10 9 11 13 14 14 13 13 14 14 15 14 12 10 7 10 13 14 16 20 25 29 26 20 18 18 18 16 16 17 14 10 8 6 6 10 13 12 10 6 2 4 7 9 10 8 7 10 8 5 10 14 10 7 7 6 5 3 4 6 4 7 16 13 5 6 5 5 7 3 2 5 5 6 5 3 4 6
22 13 6 4 -1 -1 7 13 11 7 7 9 12 14 14 15 15 15 16 16 17 17 16 13 9 5 7 11 11 12 17 21 25 27 21 18 22 20 15 16 16 13 9 7 6 7 10 11 10 7 4 2 2 6 9 8 8 11 6 1 8 14 11 9 9 7 7 6 3 5 3 3 16 18 3 4 11 9 9 6 4 6 5 6 5 1 3 7
18 10 7 3 -2 3 12 12 7 6 8 10 12 14 15 14 13 14 18 17 15 16 16 13 9 5 4 6 6 7 10 12 17 25 24 17 20 25 22 16 15 15 12 9 6 6 8 9 9 9 7 2 1 3 4 5 9 11 4 -1 4 11 12 11 10 9 6 5 3 6 3 -0 16 25 6 2 14 11 8 9 7 6 6 7 6 3 3 5
15 10 8 3 2 10 13 8 5 6 9 11 14 16 16 14 11 13 17 16 13 15 16 13 9 8 6 4 2 2 5 7 9 17 22 21 19 23 26 21 17 16 14 12 8 6 7 9 9 11 11 5 2 3 2 2 7 10 4 -1 2 7 10 11 11 9 3 -0 3 8 3 -5 8 25 13 2 10 11 10 13 11 8 6 6 6 5 3 2
13 10 8 6 9 12 8 7 8 12 16 17 17 17 17 15 13 12 15 15 13 12 13 11 8 7 4 2 2 3 4 5 6 9 13 17 20 22 26 25 20 16 16 14 11 8 7 9 9 8 11 9 4 3 3 2 4 8 6 1 2 5 8 11 11 10 6 -1 3 8 1 -9 -3 17 19 5 6 12 12 17 17 9 6 7 7 4 0 0
11 10 10 10 10 8 7 11 16 20 22 20 19 19 18 16 14 14 16 16 13 11 10 9 8 7 5 3 3 5 7 6 6 6 7 8 13 20 27 28 24 19 17 14 13 12 9 8 8 6 8 9 7 4 3 4 5 8 9 3 2 6 9 11 8 10 11 3 3 7 -2 -8 -3 14 23 11 6 10 10 17 21 11 8 9 6 3 -2 -2
11 10 9 9 8 8 12 18 19 21 21 19 18 17 17 16 16 17 19 18 16 13 12 10 10 8 6 5 4 5 6 6 4 4 5 5 5 10 20 28 29 23 17 16 17 16 11 8 7 7 9 9 9 7 2 3 4 4 7 5 4 5 6 10 9 11 15 8 6 5 -5 -9 -5 6 19 16 9 10 9 17 22 12 6 7 5 5 2 -1
9 7 6 8 11 15 19 20 17 16 16 15 14 14 15 16 16 17 16 16 16 14 12 11 10 9 7 5 4 4 4 4 3 1 2 4 5 6 10 20 30 28 19 17 21 19 14 10 6 6 10 10 9 9 5 3 3 2 5 8 5 0 3 11 10 8 14 13 10 7 -1 -6 -8 -3 12 15 9 11 10 15 21 12 4 5 6 5 3 2
6 6 9 13 17 20 21 18 14 13 12 11 12 14 14 13 13 13 12 11 11 11 10 9 8 8 8 7 5 5 5 4 4 3 0 0 2 5 6 9 21 30 26 17 19 24 19 10 6 5 9 10 9 9 7 5 5 3 5 8 4 1 2 9 10 7 11 13 9 8 6 2 -2 1 14 15 10 11 11 14 19 12 3 4 6 5 3 6
5 9 13 16 18 21 21 16 12 13 11 10 13 14 13 13 13 12 10 8 8 9 8 8 9 9 8 8 7 5 5 5 5 4 1 -1 -1 3 7 7 10 22 31 21 17 27 22 9 7 7 7 10 11 10 9 8 7 5 5 5 4 4 4 6 9 7 7 9 8 7 9 7 0 1 12 17 11 8 11 16 15 9 6 7 7 7 6 5
4 8 10 12 16 18 18 15 12 12 11 11 15 16 16 16 16 14 11 9 8 7 6 5 5 5 4 4 5 4 3 3 4 4 4 4 3 4 7 9 6 11 25 27 20 24 24 13 9 8 6 9 10 11 9 8 8 6 5 5 3 5 5 6 10 9 5 7 6 6 10 9 2 -3 4 16 16 9 9 14 12 8 8 10 9 9 9 5
1 4 7 9 13 15 15 14 13 13 13 13 15 17 18 17 15 14 13 11 8 6 6 6 6 9 10 10 11 12 12 12 12 12 12 11 10 10 9 10 8 5 13 25 26 22 22 21 13 6 7 8 8 12 10 6 8 8 4 4 4 5 2 3 9 9 6 6 5 6 10 10 6 -0 -2 8 17 15 10 10 12 11 8 7 6 6 9 8
-1 2 6 8 11 13 13 14 14 14 14 16 16 16 16 14 12 12 12 11 10 10 11 12 13 15 17 18 18 18 17 17 16 16 16 14 13 13 12 11 11 7 5 17 29 24 18 24 18 6 8 11 8 10 11 7 8 9 6 3 3 5 3 2 7 7 5 6 4 5 9 9 10 9 3 3 12 17 14 11 12 10 7 7 7 3 6 10
0 1 5 8 11 12 13 14 13 12 15 17 18 17 14 12 12 11 11 11 11 12 13 14 15 16 16 18 20 23 24 23 24 25 26 25 22 18 16 14 11 9 5 9 25 27 19 22 22 10 9 12 8 7 9 10 10 10 9 7 3 4 4 4 6 5 6 7 3 3 7 6 8 13 9 6 10 13 13 13 12 8 1 2 8 8 8 10
2 3 7 10 11 13 14 12 10 13 17 17 17 16 13 12 12 11 11 12 12 13 15 15 16 18 22 25 28 34 37 36 36 37 35 35 36 32 28 25 16 11 9 8 19 27 20 18 21 18 12 8 8 12 9 8 13 13 10 9 6 4 4 5 6 3 4 7 4 5 8 3 5 12 10 8 11 12 10 10 12 12 6 2 6 9 10 11
3 4 8 11 13 14 13 11 12 15 16 15 14 13 11 12 12 11 11 12 13 15 17 19 23 28 31 33 34 35 35 33 30 29 28 30 36 38 37 36 29 19 14 12 17 23 20 16 17 18 16 7 6 18 15 5 13 17 10 8 8 5 4 5 6 5 4 5 5 8 5 -1 4 14 13 7 9 12 11 8 7 10 13 12 10 8 5 8
5 5 9 12 14 14 12 12 15 14 13 13 11 11 11 11 11 12 13 13 15 17 19 26 32 34 30 28 27 24 21 19 13 15 24 25 25 29 31 35 37 31 23 18 16 18 18 18 13 12 17 12 3 15 19 6 8 15 11 8 8 7 6 4 4 6 7 4 4 6 5 2 5 12 13 10 8 9 12 13 10 6 8 12 13 11 5 4
5 6 11 13 13 13 13 14 15 13 13 12 11 11 12 12 14 16 15 15 17 21 28 34 31 27 23 18 19 21 22 22 15 15 25 22 14 19 24 28 33 33 30 24 17 17 17 16 13 11 18 17 8 11 16 9 8 14 12 8 8 8 7 4 3 4 7 7 3 2 4 8 8 8 10 12 11 9 8 12 13 9 5 6 8 10 10 9
6 6 12 13 12 13 14 14 13 13 13 11 12 14 13 14 15 16 15 16 20 28 35 33 22 19 20 13 10 16 22 29 27 22 23 17 9 12 18 22 27 29 32 29 20 18 17 13 12 13 17 20 14 9 10 11 10 13 14 11 8 8 6 5 4 3 5 8 4 1 4 7 8 9 9 11 13 11 8 9 11 10 8 6 6 7 8 10
8 7 11 13 13 12 12 12 11 13 13 12 15 17 15 15 15 14 14 17 26 34 33 24 15 16 21 17 14 16 17 20 21 17 17 16 11 11 13 16 20 22 29 34 30 23 15 11 15 14 13 21 22 11 7 11 10 10 15 14 10 10 8 4 4 4 4 5 5 5 4 1 4 13 14 11 11 10 10 12 12 11 10 8 7 8 9 10
9 7 11 13 13 13 12 11 11 12 12 13 16 18 17 15 13 13 15 18 29 33 24 17 15 14 15 16 16 17 17 15 12 11 13 14 12 12 11 12 15 16 20 27 34 33 18 8 16 19 12 18 25 16 7 10 12 8 11 15 12 12 11 6 4 4 4 4 4 6 6 0 0 12 17 14 11 10 12 14 14 11 10 9 8 8 11 13
9 8 12 12 12 12 11 10 11 11 11 11 13 16 18 17 13 12 17 24 28 25 17 18 18 12 10 12 11 12 13 13 13 12 11 10 12 13 12 11 13 15 17 16 23 36 29 13 15 21 15 15 22 21 11 9 13 10 7 12 16 13 11 8 5 4 4 5 4 4 8 5 -0 8 17 14 10 10 11 12 14 13 12 10 8 8 11 12
8 10 13 13 14 12 10 9 9 9 11 12 14 15 17 17 12 9 18 29 28 18 12 16 16 11 10 10 9 10 10 11 13 14 13 11 12 14 12 12 14 15 17 16 14 24 30 23 16 17 19 15 15 23 22 10 9 11 7 9 16 15 11 8 7 5 3 5 5 4 8 8 3 10 21 16 6 7 9 10 14 17 15 9 6 8 11 10
7 12 15 13 13 12 9 7 7 8 10 11 16 20 20 17 12 8 16 31 31 17 9 12 12 10 9 8 8 9 9 10 9 9 12 11 11 13 11 11 15 14 13 19 18 16 21 25 21 20 24 18 10 21 28 15 8 13 10 8 15 16 11 8 7 6 3 3 6 6 8 9 4 8 18 16 8 6 8 10 16 22 21 12 7 8 9 10
Height
5865 5864 5864 5864 5863 5863 5863 5863 5863 5862 5862 5862 5862 5862 5862 5862 5862 5862 5862 5862 5863 5864 5864 5864 5864 5865 5865 5866 5866 5866 5867 5867 5868 5869 5871 5871 5872 5873 5874 5876 5877 5878 5879 5880 5881 5882 5883 5884 5886 5887 5888 5889 5891 5893 5894 5895 5896 5896 5897 5897 5898 5899 5899 5900 5901 5901 5902 5903 5903 5904 5904 5904 5904 5905 5905 5906 5906 5907 5907 5908 5908 5908 5909 5909 5909 5910 5911 5911
5862 5862 5862 5861 5861 5861 5861 5861 5860 5860 5860 5860 5860 5860 5860 5860 5860 5860 5860 5861 5861 5861 5862 5862 5862 5863 5863 5864 5864 5865 5865 5866 5866 5868 5869 5868 5870 5871 5872 5874 5875 5876 5877 5878 5879 5880 5881 5882 5883 5885 5886 5888 5890 5892 5893 5894 5895 5896 5896 5897 5898 5899 5899 5900 5900 5901 5901 5902 5903 5904 5904 5904 5904 5905 5906 5906 5907 5907 5907 5908 5908 5909 5909 5909 5910 5910 5911 5911
5860 5860 5859 5859 5859 5858 5858 5858 5858 5858 5857 5857 5857 5857 5857 5858 5858 5858 5858 5859 5859 5859 5860 5860 5860 5861 5862 5862 5863 5863 5863 5864 5865 5866 5866 5867 5869 5870 5871 5873 5873 5874 5875 5875 5876 5877 5878 5879 5880 5882 5884 5886 5888 5891 5892 5894 5895 5895 5896 5896 5897 5898 5899 5899 5900 5901 5901 5902 5903 5904 5904 5904 5904 5905 5906 5906 5907 5907 5907 5908 5908 5909 5909 5909 5909 5910 5910 5911
5857 5857 5857 5856 5856 5856 5856 5855 5855 5855 5855 5855 5854 5854 5855 5855 5855 5856 5855 5856 5857 5857 5858 5858 5858 5859 5859 5860 5861 5861 5861 5862 5863 5864 5865 5865 5867 5867 5869 5870 5870 5871 5873 5874 5876 5877 5877 5879 5880 5881 5883 5885 5887 5890 5891 5893 5894 5894 5895 5895 5897 5898 5899 5899 5900 5900 5901 5902 5902 5903 5903 5904 5904 5904 5905 5906 5906 5907 5907 5908 5909 5909 5909 5909 5909 5910 5910 5910
5855 5855 5854 5854 5853 5853 5853 5853 5853 5852 5852 5852 5852 5852 5852 5852 5852 5853 5853 5853 5854 5855 5855 5856 5856 5856 5857 5858 5858 5859 5859 5860 5861 5862 5862 5862 5864 5865 5866 5867 5867 5870 5872 5873 5875 5876 5877 5879 5880 5881 5883 5885 5887 5888 5889 5891 5893 5893 5893 5895 5896 5897 5899 5899 5899 5900 5901 5901 5902 5903 5903 5904 5904 5904 5905 5905 5906 5907 5907 5908 5909 5909 5909 5909 5909 5910 5910 5909
5853 5852 5852 5851 5851 5851 5850 5850 5850 5850 5849 5849 5849 5849 5849 5849 5849 5849 5850 5850 5850 5851 5852 5853 5853 5853 5854 5855 5855 5856 5857 5858 5858 5858 5859 5860 5862 5863 5864 5864 5865 5868 5870 5872 5873 5874 5876 5877 5879 5881 5882 5884 5885 5886 5887 5888 5890 5892 5892 5894 5895 5896 5898 5899 5899 5899 5900 5901 5902 5903 5903 5904 5904 5904 5904 5905 5906 5906 5907 5908 5909 5909 5909 5909 5909 5909 5910 5910
5851 5850 5850 5849 5848 5848 5848 5848 5847 5847 5847 5846 5847 5846 5846 5846 5846 5846 5846 5847 5847 5848 5849 5850 5851 5851 5851 5852 5853 5853 5854 5855 5855 5854 5857 5858 5859 5860 5861 5862 5863 5866 5868 5870 5872 5873 5875 5876 5878 5879 5881 5882 5883 5884 5884 5886 5888 5890 5891 5892 5893 5895 5896 5898 5898 5899 5900 5901 5902 5903 5903 5904 5904 5904 5904 5905 5905 5906 5907 5908 5908 5909 5909 5909 5908 5909 5910 5910
5849 5848 5847 5847 5846 5845 5845 5845 5845 5844 5844 5844 5844 5844 5843 5843 5843 5843 5843 5843 5844 5845 5845 5846 5848 5848 5848 5849 5850 5850 5850 5852 5852 5852 5854 5856 5857 5858 5859 5860 5861 5863 5865 5867 5869 5871 5873 5874 5876 5877 5879 5880 5881 5882 5883 5884 5887 5888 5889 5890 5891 5893 5895 5896 5897 5898 5899 5901 5901 5902 5903 5904 5905 5904 5904 5904 5905 5906 5907 5907 5908 5908 5908 5908 5908 5909 5910 5910
5847 5846 5845 5844 5844 5843 5842 5842 5842 5841 5841 5841 5841 5841 5841 5840 5840 5840 5840 5840 5841 5841 5842 5843 5844 5844 5845 5846 5847 5847 5847 5849 5849 5849 5852 5853 5854 5856 5857 5858 5859 5860 5862 5864 5866 5868 5871 5872 5873 5874 5875 5876 5878 5879 5881 5883 5885 5885 5886 5887 5889 5891 5893 5895 5896 5898 5899 5900 5901 5902 5903 5904 5905 5905 5904 5904 5904 5905 5906 5907 5908 5908 5908 5908 5908 5909 5909 5910
5844 5844 5843 5842 5841 5840 5840 5839 5839 5838 5838 5838 5838 5838 5838 5838 5837 5837 5837 5837 5837 5838 5839 5839 5840 5841 5842 5842 5843 5843 5843 5845 5847 5847 5849 5851 5852 5853 5854 5855 5856 5858 5859 5861 5864 5866 5868 5868 5869 5870 5871 5872 5874 5876 5879 5881 5881 5881 5883 5886 5888 5889 5892 5894 5896 5897 5898 5899 5900 5901 5902 5904 5905 5905 5904 5904 5904 5905 5906 5907 5907 5908 5908 5908 5908 5909 5909 5910
5842 5841 5840 5839 5838 5837 5837 5836 5835 5835 5834 5834 5835 5834 5834 5834 5834 5834 5833 5834 5834 5835 5835 5835 5836 5837 5838 5838 5839 5840 5840 5842 5844 5845 5846 5848 5850 5850 5851 5852 5853 5855 5856 5858 5861 5862 5862 5862 5864 5866 5868 5870 5872 5874 5876 5878 5878 5879 5882 5885 5886 5888 5891 5893 5895 5897 5898 5899 5899 5900 5901 5903 5905 5906 5905 5904 5904 5905 5905 5906 5907 5907 5908 5908 5908 5909 5909 5910
5838 5838 5837 5836 5835 5834 5833 5832 5832 5831 5831 5831 5830 5830 5830 5830 5830 5830 5830 5830 5831 5832 5832 5832 5832 5833 5833 5834 5835 5837 5837 5838 5840 5841 5843 5845 5846 5847 5848 5849 5850 5852 5853 5855 5857 5857 5857 5858 5861 5863 5866 5868 5870 5871 5873 5875 5876 5877 5880 5882 5884 5887 5890 5892 5894 5895 5897 5897 5898 5899 5901 5903 5904 5905 5905 5904 5904 5905 5905 5906 5907 5907 5908 5908 5909 5909 5909 5909
5835 5834 5834 5832 5831 5830 5829 5829 5828 5827 5826 5826 5826 5825 5825 5825 5825 5825 5825 5826 5827 5828 5828 5829 5829 5829 5829 5830 5831 5833 5833 5834 5836 5837 5839 5841 5843 5844 5845 5846 5847 5849 5851 5852 5853 5854 5854 5856 5859 5860 5862 5864 5866 5868 5870 5872 5873 5875 5878 5880 5882 5884 5888 5890 5892 5894 5895 5896 5897 5899 5901 5902 5902 5904 5905 5904 5904 5904 5905 5906 5907 5907 5908 5908 5909 5909 5909 5909
5831 5831 5830 5829 5828 5827 5826 5825 5824 5823 5822 5822 5821 5820 5820 5819 5819 5819 5820 5822 5823 5823 5824 5825 5825 5825 5825 5826 5827 5829 5829 5830 5832 5834 5835 5837 5839 5840 5841 5842 5844 5846 5848 5849 5850 5851 5853 5855 5856 5857 5859 5861 5863 5865 5867 5869 5871 5873 5875 5877 5879 5882 5886 5888 5889 5892 5893 5894 5896 5898 5900 5900 5901 5903 5904 5904 5904 5904 5904 5905 5906 5907 5908 5908 5908 5909 5909 5909
5828 5827 5826 5825 5824 5823 5822 5820 5820 5819 5818 5817 5816 5815 5814 5814 5813 5813 5814 5816 5818 5818 5819 5820 5821 5821 5821 5822 5823 5824 5825 5826 5828 5829 5831 5833 5835 5836 5837 5838 5840 5842 5844 5845 5846 5848 5850 5852 5853 5856 5858 5860 5861 5863 5865 5866 5869 5871 5872 5874 5877 5881 5885 5886 5888 5890 5891 5892 5894 5897 5898 5899 5901 5903 5902 5903 5903 5903 5904 5904 5906 5907 5908 5908 5908 5908 5908 5908
5824 5823 5822 5821 5819 5818 5817 5816 5815 5814 5813 5812 5811 5810 5809 5808 5807 5806 5808 5810 5811 5812 5814 5815 5816 5817 5817 5818 5818 5818 5820 5822 5823 5824 5826 5828 5830 5832 5834 5835 5836 5838 5840 5842 5843 5844 5846 5848 5851 5854 5855 5856 5858 5861 5863 5864 5865 5868 5871 5873 5876 5879 5883 5885 5886 5889 5890 5890 5893 5896 5897 5898 5900 5902 5902 5902 5903 5903 5903 5903 5904 5906 5907 5908 5908 5908 5908 5908
5819 5818 5817 5816 5814 5813 5812 5810 5809 5808 5807 5806 5805 5804 5803 5802 5801 5800 5801 5804 5805 5806 5807 5809 5810 5811 5812 5813 5814 5813 5815 5817 5818 5819 5821 5823 5825 5827 5829 5831 5832 5834 5836 5838 5839 5841 5843 5845 5848 5850 5851 5854 5857 5858 5859 5860 5862 5867 5870 5872 5875 5878 5881 5883 5885 5887 5887 5889 5892 5894 5895 5897 5898 5900 5901 5901 5902 5903 5903 5903 5903 5904 5906 5907 5908 5908 5908 5908
5814 5812 5811 5810 5808 5807 5806 5805 5803 5803 5801 5800 5799 5798 5797 5796 5795 5793 5794 5797 5798 5799 5800 5802 5804 5805 5806 5808 5809 5809 5809 5811 5813 5814 5816 5818 5819 5822 5824 5825 5827 5828 5830 5833 5835 5838 5840 5843 5845 5846 5847 5850 5853 5855 5857 5860 5864 5867 5870 5872 5874 5876 5879 5881 5883 5885 5885 5887 5890 5892 5894 5895 5896 5898 5899 5900 5901 5902 5902 5902 5902 5903 5905 5906 5908 5908 5908 5907
5809 5807 5806 5804 5802 5800 5799 5798 5797 5797 5795 5793 5792 5791 5791 5790 5788 5786 5788 5790 5791 5792 5793 5795 5797 5798 5799 5802 5803 5804 5804 5805 5807 5808 5811 5813 5814 5816 5818 5820 5821 5823 5825 5828 5831 5833 5837 5839 5841 5842 5846 5850 5853 5856 5859 5863 5865 5867 5869 5870 5872 5874 5877 5879 5881 5882 5882 5884 5887 5890 5892 5893 5893 5895 5897 5899 5900 5901 5901 5901 5901 5902 5904 5905 5907 5908 5908 5907
5803 5801 5800 5798 5796 5794 5793 5792 5791 5790 5789 5787 5785 5784 5783 5783 5782 5779 5779 5783 5784 5784 5785 5787 5789 5790 5792 5795 5797 5798 5798 5798 5801 5803 5805 5807 5808 5810 5812 5814 5816 5818 5821 5824 5827 5829 5832 5834 5837 5843 5849 5851 5853 5855 5857 5860 5862 5864 5866 5867 5868 5871 5874 5876 5878 5879 5879 5880 5884 5887 5889 5890 5891 5893 5895 5896 5898 5899 5900 5901 5901 5902 5903 5904 5906 5907 5907 5907
5798 5796 5794 5792 5790 5789 5787 5785 5785 5784 5782 5781 5779 5778 5777 5776 5777 5774 5772 5774 5776 5777 5777 5779 5782 5783 5785 5788 5790 5792 5792 5792 5794 5797 5800 5802 5802 5804 5806 5809 5811 5813 5817 5820 5822 5824 5826 5829 5836 5844 5846 5846 5847 5849 5852 5855 5858 5860 5862 5863 5865 5867 5870 5873 5874 5876 5876 5877 5881 5883 5886 5887 5888 5891 5892 5894 5896 5898 5899 5900 5900 5901 5902 5903 5904 5905 5906 5906
5794 5791 5789 5787 5785 5783 5781 5779 5778 5778 5776 5775 5773 5772 5771 5770 5770 5770 5768 5766 5767 5769 5769 5770 5774 5775 5777 5780 5782 5784 5785 5786 5787 5790 5794 5796 5797 5799 5801 5804 5806 5809 5812 5813 5816 5819 5821 5827 5836 5840 5840 5841 5843 5845 5847 5850 5853 5855 5857 5859 5862 5864 5868 5870 5870 5873 5874 5875 5878 5880 5883 5885 5885 5887 5888 5891 5895 5897 5898 5898 5898 5899 5900 5901 5903 5903 5904 5905
5789 5786 5783 5781 5780 5778 5776 5774 5772 5772 5770 5769 5768 5767 5766 5765 5764 5765 5764 5762 5761 5762 5762 5763 5765 5767 5769 5771 5773 5776 5778 5779 5781 5783 5787 5790 5792 5793 5796 5799 5801 5803 5805 5807 5811 5815 5818 5828 5836 5835 5834 5837 5838 5840 5843 5846 5848 5849 5851 5855 5858 5862 5866 5867 5866 5868 5870 5872 5874 5876 5879 5881 5881 5883 5885 5889 5893 5895 5895 5895 5894 5896 5898 5899 5900 5901 5902 5903
5784 5782 5778 5776 5775 5774 5771 5769 5767 5766 5765 5764 5763 5762 5761 5761 5760 5760 5760 5758 5757 5756 5756 5756 5757 5759 5761 5763 5766 5768 5770 5772 5774 5776 5780 5784 5786 5788 5791 5794 5796 5798 5800 5802 5807 5810 5816 5826 5829 5826 5829 5832 5834 5836 5839 5842 5844 5846 5848 5851 5856 5860 5863 5864 5863 5864 5867 5869 5872 5874 5875 5876 5878 5880 5883 5887 5889 5892 5893 5893 5893 5894 5896 5896 5898 5900 5901 5902
5779 5777 5774 5772 5770 5769 5767 5765 5763 5762 5761 5760 5759 5758 5757 5756 5756 5756 5756 5754 5753 5752 5752 5750 5751 5753 5753 5756 5758 5759 5762 5765 5767 5770 5773 5777 5779 5782 5785 5788 5790 5792 5795 5798 5801 5804 5811 5820 5821 5819 5824 5828 5829 5832 5835 5838 5841 5843 5845 5849 5853 5857 5859 5861 5861 5861 5863 5865 5868 5870 5869 5872 5875 5877 5880 5883 5885 5889 5891 5892 5893 5894 5894 5895 5897 5899 5901 5902
5775 5772 5770 5768 5766 5765 5764 5762 5761 5758 5756 5755 5755 5754 5752 5752 5752 5751 5751 5751 5749 5748 5748 5746 5746 5747 5748 5750 5751 5752 5755 5757 5759 5763 5766 5769 5772 5775 5778 5781 5784 5787 5790 5793 5795 5798 5806 5814 5815 5814 5818 5821 5823 5827 5830 5834 5837 5839 5844 5848 5850 5852 5854 5857 5858 5858 5858 5860 5864 5865 5865 5869 5872 5873 5877 5879 5882 5886 5888 5890 5892 5892 5893 5895 5897 5899 5900 5901
5771 5768 5766 5764 5763 5762 5761 5759 5757 5755 5753 5751 5750 5749 5747 5747 5747 5747 5746 5746 5745 5744 5744 5742 5742 5743 5743 5744 5744 5746 5748 5749 5752 5756 5758 5761 5765 5768 5771 5774 5777 5781 5784 5786 5787 5793 5802 5808 5808 5809 5813 5816 5817 5822 5828 5832 5834 5838 5843 5844 5844 5846 5849 5853 5854 5853 5854 5856 5859 5860 5861 5864 5867 5869 5873 5875 5877 5881 5884 5887 5890 5891 5892 5895 5896 5898 5899 5900
5767 5764 5762 5761 5759 5758 5757 5756 5753 5751 5749 5747 5746 5744 5743 5742 5742 5741 5741 5740 5740 5740 5739 5739 5738 5739 5740 5740 5740 5740 5741 5743 5746 5748 5750 5754 5758 5761 5764 5767 5770 5774 5777 5779 5782 5789 5798 5802 5803 5805 5809 5812 5816 5822 5826 5828 5829 5836 5839 5837 5838 5842 5844 5846 5848 5849 5851 5852 5852 5855 5857 5858 5862 5867 5870 5871 5873 5876 5880 5885 5888 5890 5892 5894 5895 5897 5898 5899
5763 5761 5759 5757 5756 5754 5753 5751 5749 5747 5745 5743 5742 5740 5739 5738 5737 5736 5736 5734 5735 5735 5735 5735 5735 5735 5736 5736 5736 5736 5736 5738 5740 5741 5744 5747 5750 5754 5757 5760 5763 5766 5770 5773 5776 5783 5792 5796 5797 5800 5803 5809 5815 5819 5820 5820 5824 5831 5832 5830 5833 5836 5838 5840 5841 5844 5847 5843 5843 5850 5853 5852 5858 5864 5865 5866 5869 5873 5879 5884 5886 5888 5891 5892 5894 5895 5896 5898
5760 5758 5756 5754 5752 5750 5748 5746 5745 5743 5740 5739 5737 5735 5734 5733 5732 5731 5730 5729 5730 5731 5731 5730 5731 5732 5732 5731 5732 5732 5732 5734 5734 5736 5739 5740 5742 5746 5750 5752 5756 5759 5763 5765 5768 5776 5785 5789 5790 5793 5798 5804 5810 5811 5812 5814 5819 5825 5823 5823 5827 5829 5831 5834 5835 5840 5840 5834 5837 5847 5850 5849 5853 5859 5860 5862 5869 5874 5878 5881 5883 5886 5889 5891 5892 5893 5894 5896
5756 5754 5753 5751 5749 5747 5744 5741 5739 5738 5735 5734 5733 5731 5729 5728 5728 5726 5725 5725 5725 5726 5726 5726 5726 5727 5727 5727 5727 5727 5728 5729 5730 5731 5733 5734 5736 5739 5742 5745 5749 5753 5756 5758 5762 5769 5777 5782 5784 5788 5792 5797 5802 5804 5806 5809 5814 5817 5815 5816 5820 5823 5825 5827 5830 5832 5829 5827 5835 5844 5847 5845 5847 5854 5858 5861 5868 5872 5874 5878 5881 5883 5886 5889 5891 5892 5893 5895
5753 5751 5749 5748 5745 5743 5740 5737 5735 5733 5731 5728 5727 5726 5724 5723 5723 5722 5721 5720 5720 5721 5722 5722 5722 5722 5723 5722 5722 5723 5723 5724 5725 5727 5728 5730 5731 5733 5736 5739 5743 5746 5748 5752 5756 5762 5771 5776 5778 5782 5785 5789 5795 5798 5800 5803 5807 5809 5808 5809 5813 5816 5818 5820 5822 5823 5823 5828 5834 5840 5843 5839 5840 5851 5857 5858 5864 5869 5871 5875 5878 5880 5883 5886 5889 5890 5892 5893
5749 5747 5746 5744 5741 5739 5737 5733 5731 5729 5726 5723 5722 5721 5720 5718 5718 5717 5716 5715 5715 5716 5717 5717 5717 5718 5718 5718 5718 5719 5719 5719 5720 5722 5723 5724 5726 5728 5731 5734 5737 5740 5742 5746 5750 5756 5764 5769 5770 5773 5778 5782 5788 5791 5794 5798 5801 5802 5802 5804 5807 5809 5811 5814 5818 5819 5823 5828 5831 5836 5839 5832 5835 5848 5853 5855 5862 5866 5869 5871 5874 5877 5880 5884 5886 5888 5889 5890
5746 5744 5742 5740 5737 5734 5732 5729 5726 5724 5721 5719 5717 5716 5715 5714 5713 5713 5712 5711 5710 5711 5711 5712 5712 5713 5713 5713 5714 5714 5715 5715 5716 5716 5717 5719 5721 5723 5725 5728 5731 5734 5736 5739 5743 5748 5756 5760 5762 5765 5770 5775 5782 5785 5790 5795 5798 5799 5801 5803 5804 5806 5810 5814 5817 5818 5821 5825 5827 5831 5833 5827 5832 5845 5851 5856 5860 5863 5865 5867 5870 5874 5877 5880 5882 5884 5886 5888
5743 5741 5738 5736 5733 5730 5727 5725 5722 5720 5717 5715 5713 5712 5711 5710 5709 5708 5707 5707 5706 5706 5706 5707 5707 5707 5708 5708 5709 5709 5710 5710 5711 5711 5712 5712 5714 5717 5720 5723 5725 5728 5730 5732 5734 5740 5748 5753 5756 5760 5764 5769 5775 5779 5784 5788 5792 5795 5797 5797 5798 5803 5810 5814 5816 5818 5821 5824 5823 5823 5825 5825 5830 5842 5852 5855 5857 5859 5862 5864 5868 5872 5874 5876 5878 5880 5884 5886
5740 5737 5734 5731 5729 5726 5723 5721 5718 5716 5714 5711 5709 5708 5707 5705 5704 5704 5703 5702 5702 5702 5702 5702 5702 5702 5702 5703 5703 5703 5704 5705 5705 5706 5706 5707 5708 5710 5714 5717 5719 5722 5724 5725 5728 5734 5740 5745 5749 5754 5759 5763 5768 5772 5778 5782 5786 5789 5790 5791 5796 5803 5808 5810 5812 5814 5817 5819 5817 5815 5822 5828 5831 5841 5851 5853 5853 5857 5860 5862 5865 5868 5871 5873 5875 5878 5882 5884
5737 5734 5731 5728 5725 5722 5719 5717 5715 5712 5710 5708 5706 5704 5703 5701 5700 5699 5698 5698 5697 5697 5697 5697 5696 5697 5696 5697 5697 5697 5698 5698 5699 5699 5700 5701 5702 5703 5707 5711 5713 5715 5717 5720 5723 5726 5732 5738 5742 5748 5753 5756 5762 5768 5774 5778 5781 5784 5786 5790 5796 5800 5801 5801 5804 5808 5809 5811 5809 5809 5819 5828 5830 5838 5848 5850 5852 5855 5858 5860 5862 5865 5867 5870 5873 5877 5879 5882
5734 5731 5728 5725 5722 5719 5716 5713 5711 5709 5707 5705 5702 5701 5699 5697 5696 5695 5694 5693 5693 5692 5692 5691 5691 5691 5691 5690 5691 5691 5691 5691 5691 5692 5693 5695 5696 5697 5700 5703 5706 5708 5710 5713 5716 5720 5726 5731 5735 5742 5746 5750 5756 5762 5767 5772 5776 5781 5784 5788 5791 5792 5793 5795 5797 5801 5803 5804 5804 5805 5815 5824 5827 5834 5844 5848 5850 5853 5856 5858 5860 5862 5865 5868 5872 5875 5878 5880
5731 5728 5724 5721 5718 5715 5712 5710 5707 5705 5703 5701 5699 5697 5695 5694 5692 5691 5690 5689 5688 5687 5686 5686 5685 5684 5683 5683 5683 5683 5683 5683 5683 5684 5686 5687 5689 5691 5693 5695 5698 5701 5704 5707 5710 5714 5719 5723 5728 5735 5739 5744 5749 5754 5760 5765 5770 5775 5778 5780 5782 5784 5788 5791 5794 5799 5801 5801 5802 5804 5810 5818 5824 5832 5841 5846 5849 5851 5854 5856 5858 5860 5863 5866 5871 5873 5876 5878
5728 5725 5722 5719 5716 5712 5709 5707 5704 5701 5699 5697 5695 5693 5691 5690 5688 5687 5686 5684 5683 5682 5680 5679 5677 5676 5674 5674 5674 5674 5674 5674 5674 5676 5677 5678 5681 5684 5686 5687 5690 5693 5697 5700 5703 5708 5712 5715 5721 5728 5733 5737 5742 5747 5753 5759 5762 5767 5770 5771 5775 5778 5782 5785 5789 5795 5798 5798 5800 5801 5805 5814 5824 5831 5837 5843 5847 5849 5851 5854 5857 5859 5861 5865 5868 5871 5874 5876
5725 5722 5720 5716 5713 5710 5706 5703 5701 5698 5695 5693 5691 5689 5687 5685 5684 5682 5681 5679 5677 5675 5673 5671 5669 5667 5665 5664 5664 5664 5664 5664 5664 5666 5668 5669 5672 5674 5677 5680 5682 5685 5689 5693 5697 5701 5704 5708 5713 5720 5725 5730 5736 5742 5748 5752 5755 5759 5762 5764 5769 5774 5776 5779 5783 5788 5791 5792 5795 5797 5801 5811 5822 5828 5832 5838 5843 5846 5849 5852 5855 5857 5859 5862 5866 5869 5872 5874
5723 5720 5717 5714 5710 5707 5703 5700 5697 5694 5692 5689 5687 5685 5682 5681 5679 5677 5676 5674 5671 5669 5666 5663 5661 5658 5656 5654 5654 5654 5654 5654 5655 5656 5657 5659 5661 5664 5667 5671 5675 5677 5681 5685 5690 5693 5696 5700 5706 5713 5719 5725 5732 5737 5740 5745 5748 5753 5756 5760 5765 5769 5770 5774 5778 5784 5788 5789 5791 5794 5795 5805 5818 5824 5827 5833 5838 5842 5845 5848 5851 5854 5857 5860 5863 5866 5868 5871
5720 5717 5714 5710 5707 5703 5700 5697 5694 5691 5688 5686 5683 5681 5679 5677 5675 5673 5670 5668 5665 5662 5659 5656 5653 5650 5647 5646 5646 5645 5646 5646 5647 5648 5649 5650 5652 5655 5658 5662 5666 5670 5673 5677 5682 5686 5690 5694 5700 5707 5715 5721 5727 5729 5733 5738 5742 5746 5750 5754 5760 5763 5765 5770 5775 5780 5783 5784 5788 5790 5790 5801 5817 5822 5824 5828 5833 5837 5840 5843 5847 5851 5854 5857 5860 5862 5865 5868
5718 5715 5711 5708 5704 5701 5698 5694 5691 5688 5685 5682 5680 5677 5675 5673 5671 5668 5666 5662 5659 5656 5652 5649 5646 5643 5640 5640 5639 5639 5640 5641 5642 5643 5644 5645 5646 5648 5650 5654 5658 5662 5665 5669 5673 5678 5683 5687 5692 5700 5708 5714 5718 5721 5725 5731 5735 5740 5745 5748 5753 5757 5761 5767 5771 5775 5778 5780 5785 5786 5786 5799 5816 5820 5820 5824 5827 5832 5836 5838 5842 5846 5849 5853 5855 5858 5861 5864
5715 5712 5709 5705 5702 5698 5695 5692 5689 5686 5683 5680 5677 5674 5671 5669 5667 5664 5661 5658 5654 5650 5646 5642 5640 5638 5636 5636 5636 5636 5636 5637 5638 5639 5640 5641 5643 5644 5646 5649 5651 5655 5658 5662 5666 5671 5675 5679 5685 5692 5698 5704 5709 5712 5716 5722 5728 5733 5738 5742 5747 5752 5757 5762 5765 5768 5773 5777 5783 5783 5784 5799 5814 5817 5817 5820 5823 5827 5832 5835 5838 5841 5845 5849 5851 5854 5857 5859
5713 5710 5706 5703 5699 5696 5693 5690 5687 5684 5680 5677 5674 5671 5668 5666 5663 5660 5657 5653 5649 5645 5641 5638 5636 5635 5634 5633 5633 5633 5633 5633 5635 5636 5637 5638 5640 5642 5643 5645 5647 5649 5652 5655 5659 5663 5667 5672 5678 5683 5690 5697 5703 5707 5711 5717 5723 5728 5732 5737 5741 5746 5752 5756 5759 5763 5768 5775 5779 5780 5785 5800 5811 5813 5813 5815 5819 5823 5827 5830 5834 5837 5840 5843 5846 5849 5852 5855
5711 5708 5704 5700 5697 5694 5691 5687 5684 5681 5678 5675 5672 5669 5666 5662 5659 5656 5652 5648 5644 5640 5637 5634 5633 5632 5631 5630 5630 5630 5630 5630 5631 5633 5634 5635 5637 5639 5640 5642 5644 5645 5647 5650 5654 5657 5661 5666 5671 5676 5683 5691 5697 5701 5706 5712 5717 5723 5727 5732 5737 5742 5746 5750 5754 5759 5765 5771 5774 5776 5785 5799 5806 5808 5810 5812 5814 5818 5821 5824 5828 5831 5834 5837 5840 5843 5846 5849
5708 5705 5702 5699 5696 5692 5689 5686 5683 5680 5676 5673 5670 5666 5663 5659 5655 5652 5648 5644 5640 5637 5634 5632 5631 5630 5629 5628 5628 5628 5628 5628 5629 5630 5631 5633 5634 5636 5637 5639 5640 5642 5643 5646 5649 5652 5655 5660 5665 5670 5677 5684 5690 5696 5701 5706 5712 5718 5723 5728 5732 5737 5741 5746 5751 5757 5763 5766 5768 5775 5787 5797 5801 5804 5808 5809 5810 5814 5816 5819 5822 5825 5828 5831 5834 5837 5840 5844
5707 5704 5700 5697 5694 5691 5688 5685 5682 5679 5675 5672 5668 5664 5660 5656 5652 5649 5645 5640 5636 5634 5631 5630 5629 5628 5627 5627 5626 5626 5626 5627 5627 5628 5629 5630 5631 5633 5634 5636 5637 5639 5640 5642 5645 5647 5651 5655 5659 5663 5669 5678 5685 5690 5695 5699 5706 5712 5718 5723 5727 5732 5737 5742 5748 5754 5758 5759 5765 5776 5787 5793 5796 5801 5805 5805 5806 5808 5811 5815 5818 5820 5823 5826 5828 5832 5835 5839
5705 5702 5699 5696 5693 5689 5687 5684 5681 5678 5674 5670 5665 5661 5657 5653 5650 5646 5642 5637 5634 5632 5630 5628 5627 5626 5625 5625 5625 5625 5625 5625 5625 5626 5626 5627 5628 5629 5631 5632 5634 5635 5637 5639 5641 5643 5646 5650 5654 5658 5664 5672 5679 5684 5689 5694 5700 5707 5713 5718 5722 5727 5733 5739 5745 5750 5752 5755 5763 5774 5782 5788 5793 5797 5799 5801 5802 5804 5807 5812 5815 5817 5819 5821 5824 5827 5831 5834
5703 5700 5697 5694 5691 5688 5685 5683 5680 5676 5672 5668 5663 5659 5655 5651 5647 5644 5640 5636 5632 5630 5628 5627 5625 5624 5624 5623 5623 5623 5623 5623 5623 5623 5623 5624 5625 5626 5627 5629 5630 5632 5634 5635 5637 5640 5643 5646 5650 5653 5658 5665 5673 5678 5683 5689 5696 5701 5707 5713 5717 5722 5729 5735 5741 5745 5748 5752 5760 5769 5778 5785 5789 5791 5794 5796 5799 5801 5804 5808 5811 5814 5816 5818 5821 5824 5827 5830
5702 5699 5696 5693 5690 5687 5684 5681 5678 5674 5670 5666 5662 5657 5653 5649 5646 5641 5638 5634 5631 5628 5627 5625 5624 5623 5622 5622 5621 5621 5621 5620 5620 5620 5621 5621 5622 5623 5624 5625 5626 5628 5630 5631 5633 5636 5639 5642 5645 5648 5652 5660 5668 5672 5678 5685 5690 5694 5702 5709 5714 5719 5726 5732 5736 5739 5742 5748 5756 5765 5774 5781 5784 5787 5790 5793 5795 5798 5800 5804 5808 5812 5814 5816 5819 5821 5824 5826